Simultaneous Nadir Overpasses (SNOs) Predictions

Prediction of SNOs between METOP-A and TERRA Satellite Orbit:

Table of predicted SNOs for the next 14.0 days since TLE Epoch: 5/2/2013
Index Date (METOP-A) Time (METOP-A) Lat,Lon (METOP-A) SZA (METOP-A ) Date (TERRA) Time (TERRA) Lat,Lon (TERRA) SZA (TERRA ) Distance(km) Time Diff (sec)
1 05/04/2013 11:11:56 81.29, 58.74 68.13 05/04/2013 11:12:56 81.28, 58.65 68.14 1.56 60
2 05/04/2013 12:02:35 -81.30,-133.38 111.82 05/04/2013 12:02:22 -81.30,-133.43 111.83 1.00 13
3 05/07/2013 06:46:19 81.29, 125.11 67.34 05/07/2013 06:47:08 81.28, 125.09 67.36 0.60 49
4 05/07/2013 07:36:58 -81.30, -67.00 112.60 05/07/2013 07:36:34 -81.30, -66.97 112.61 0.77 24
5 05/10/2013 02:20:41 81.29,-168.22 66.63 05/10/2013 02:21:19 81.29,-168.28 66.64 1.02 38
6 05/10/2013 03:11:21 -81.29, -0.71 113.36 05/10/2013 03:10:46 -81.29, -0.70 113.38 0.56 35
7 05/12/2013 21:55:03 81.29,-102.03 65.89 05/12/2013 21:55:29 81.29,-101.85 65.93 3.00 26
8 05/12/2013 22:45:42 -81.30, 65.88 114.05 05/12/2013 22:44:56 -81.29, 65.76 114.09 2.22 46
9 05/15/2013 17:29:24 81.30, -35.14 65.28 05/15/2013 17:29:39 81.30, -35.23 65.28 1.72 15




NCC Satellite Simultaneous Nadir Overpasses (SNOs) Prediction Service
